This is the latest recevied weather packets stored in our database for station/object KP4CRN. If no packets are shown the sender has not sent any weather packets the latest 10 day(s).
| Time | Temp. | Humidity | Pressure | Rain* | Wind** | Luminosity | Snow |
|---|---|---|---|---|---|---|---|
| 1778153984 | 27.78° C | 86% | 1017.3 hPa | 0 mm | - | 208 W/m² | - |
| 1778153681 | 27.78° C | 86% | 1017.3 hPa | 0 mm | - | 196 W/m² | - |
| 1778153378 | 27.78° C | 86% | 1017.2 hPa | 0 mm | - | 181 W/m² | - |
| 1778153076 | 27.22° C | 87% | 1017.1 hPa | 0 mm | - | 159 W/m² | - |
| 1778152772 | 27.78° C | 86% | 1017 hPa | 0 mm | - | 151 W/m² | - |
| 1778152470 | 27.78° C | 86% | 1017.1 hPa | 0 mm | - | 139 W/m² | - |
| 1778152166 | 27.22° C | 87% | 1017.1 hPa | 0 mm | - | 125 W/m² | - |
| 1778151862 | 27.22° C | 88% | 1017 hPa | 0 mm | - | 114 W/m² | - |
| 1778151559 | 27.22° C | 87% | 1017.3 hPa | 0 mm | - | 104 W/m² | - |
| 1778151256 | 27.22° C | 87% | 1017.3 hPa | 0 mm | - | 93 W/m² | - |
| 1778150952 | 26.67° C | 89% | 1017.2 hPa | 0 mm | - | 82 W/m² | - |
| 1778150649 | 26.67° C | 90% | 1017 hPa | 0 mm | - | 71 W/m² | - |
| 1778150345 | 26.11° C | 90% | 1017.1 hPa | 0 mm | - | 59 W/m² | - |
| 1778150042 | 26.11° C | 91% | 1017 hPa | 0 mm | - | 51 W/m² | - |
| 1778149738 | 25.56° C | 92% | 1016.8 hPa | 0 mm | - | 41 W/m² | - |
| 1778149435 | 25.56° C | 93% | 1017 hPa | 0 mm | - | 32 W/m² | - |
| 1778149131 | 25° C | 93% | 1017 hPa | 0 mm | - | 24 W/m² | - |
| 1778148831 | 25° C | 94% | 1016.9 hPa | 0 mm | - | 18 W/m² | - |
| 1778148528 | 25° C | 94% | 1016.6 hPa | 0 mm | - | 13 W/m² | - |
| 1778148226 | 25° C | 95% | 1016.8 hPa | 0 mm | - | 9 W/m² | - |
| 1778147924 | 25° C | 95% | 1016.4 hPa | 0 mm | - | 5 W/m² | - |
| 1778147620 | 25° C | 95% | 1016.6 hPa | 0 mm | - | 3 W/m² | - |
| 1778147318 | 25° C | 95% | 1016.6 hPa | 0 mm | - | 1 W/m² | - |
| 1778147014 | 25° C | 95% | 1016.6 hPa | 0 mm | - | 0 W/m² | - |
| 1778146711 | 25° C | 94% | 1016.6 hPa | 0 mm | - | 0 W/m² | - |
* Rain latest hour (hover to see other rain measurements)
** Current wind speed in m/s (hover to see current wind gust speed)